2018-096K (43728 NORAD) Tracking and Keplerian Element Data

This shows tracking and keplerian element data for the satellite.

Feedback or suggestion? Click here.




ElementValue
Catalog43728
Name2018-096K
Epoch Orbit457
Epoch Day363.19065922
Epoch Year2018
RAAN68.2205
Inclination97.4825
Eccentricity0.0017545
Argument of Perigee216.6098
Mean Anonmoly143.3942
Mean Motion15.26223347
Decay Rate1.672E-05
L11 43728U 18096K 18363.19065922 .00001672 00000-0 67268-4 0 9992
L22 43728 97.4825 68.2205 0017545 216.6098 143.3942 15.26223347 4575

Live tracking and technical data element details for 2018-096K (NORAD 43728). 2018-096K can be tracked NOW for your location showing map with azimuth and elevation plus other details from your city location.

Track the satellite on the map from your city or location and see movement details for azimuth, elevation, latitude, longitude, range, height, and movement on the map or in text.







IsCatalogInMostPopularTable: catalog: 43728, numindb: 67
Update: records affected: 1



GetName: 43728 2018-096K

Hit Count: updated at: Mon, 27 May 2019 04:29:14 GMT